User: anonymous   Login
Location: Mentone
(34.5413°N, 85.5351°W)
Time: 22:18:57
(UTC-05:00)
Language:

A-11 Canister half - Orbit

View from above orbital plane
View from above orbital plane
View from above satellite
View from above satellite

Ground track
Ground track

The orbit data is extracted from the following two-line orbital elements,

1    53U 60009E   17118.56703996 -.00000084 +00000-0 +00000-0 0  9999
2    53 047.2755 192.5572 0098747 294.0755 064.9728 12.17199547528993
Epoch (UTC): 28 April 2017 13:36:32
Eccentricity: 0.0098747
inclination: 47.2755°
perigee height: 1526 km
apogee height: 1683 km
right ascension of ascending node: 192.5572°
argument of perigee: 294.0755°
revolutions per day: 12.17199547
mean anomaly at epoch: 64.9728°
orbit number at epoch: 52899

The dashed part of the orbit path shows where the satellite is in the earth's shadow,  

DLR